Time,TemperatureF,DewpointF,PressureIn,WindDirection,WindDirectionDegrees,WindSpeedMPH,WindSpeedGustMPH,Humidity,HourlyPrecipIn,Conditions,Clouds,dailyrainin,SolarRadiationWatts/m^2,SoftwareType,DateUTC
2013-04-27 00:22:00,39.0,10.0,-100.00,ENE,63,2.0,4.0,30,0.00,,,0.00,1.000000,,2013-04-27 06:22:00,
2013-04-27 00:32:00,39.0,10.0,-100.00,ENE,63,2.0,4.0,30,0.00,,,0.00,1.000000,,2013-04-27 06:32:00,
2013-04-27 00:41:00,39.0,10.0,-100.00,ENE,63,2.0,4.0,30,0.00,,,0.00,1.000000,,2013-04-27 06:41:00,
2013-04-27 00:51:00,39.0,10.0,-100.00,ENE,63,2.0,4.0,30,0.00,,,0.00,1.000000,,2013-04-27 06:51:00,
2013-04-27 01:21:00,35.0,12.0,-100.00,ENE,73,1.0,4.0,38,0.00,,,0.00,1.000000,,2013-04-27 07:21:00,
2013-04-27 01:31:00,35.0,12.0,-100.00,ENE,73,1.0,4.0,38,0.00,,,0.00,1.000000,,2013-04-27 07:31:00,
2013-04-27 01:42:00,35.0,12.0,-100.00,ENE,73,1.0,4.0,38,0.00,,,0.00,1.000000,,2013-04-27 07:42:00,
2013-04-27 01:52:00,35.0,12.0,-100.00,ENE,73,1.0,4.0,38,0.00,,,0.00,1.000000,,2013-04-27 07:52:00,
2013-04-27 02:21:00,34.0,12.0,-100.00,ESE,119,1.0,4.0,40,0.00,,,0.00,1.000000,,2013-04-27 08:21:00,
2013-04-27 02:33:00,34.0,12.0,-100.00,ESE,119,1.0,4.0,40,0.00,,,0.00,1.000000,,2013-04-27 08:33:00,
2013-04-27 02:41:00,34.0,12.0,-100.00,ESE,119,1.0,4.0,40,0.00,,,0.00,1.000000,,2013-04-27 08:41:00,
2013-04-27 02:51:00,34.0,12.0,-100.00,ESE,119,1.0,4.0,40,0.00,,,0.00,1.000000,,2013-04-27 08:51:00,
2013-04-27 03:21:00,32.0,12.0,-100.00,ENE,58,2.0,4.0,43,0.00,,,0.00,1.000000,,2013-04-27 09:21:00,
2013-04-27 03:33:00,32.0,12.0,-100.00,ENE,58,2.0,4.0,43,0.00,,,0.00,1.000000,,2013-04-27 09:33:00,
2013-04-27 03:42:00,32.0,12.0,-100.00,ENE,58,2.0,4.0,43,0.00,,,0.00,1.000000,,2013-04-27 09:42:00,
2013-04-27 03:53:00,32.0,12.0,-100.00,ENE,58,2.0,4.0,43,0.00,,,0.00,1.000000,,2013-04-27 09:53:00,
2013-04-27 04:22:00,33.0,11.0,-100.00,NE,49,3.0,4.0,40,0.00,,,0.00,1.000000,,2013-04-27 10:22:00,
2013-04-27 04:32:00,33.0,11.0,-100.00,NE,49,3.0,4.0,40,0.00,,,0.00,1.000000,,2013-04-27 10:32:00,
2013-04-27 04:42:00,33.0,11.0,-100.00,NE,49,3.0,4.0,40,0.00,,,0.00,1.000000,,2013-04-27 10:42:00,
2013-04-27 04:52:00,33.0,11.0,-100.00,NE,49,3.0,4.0,40,0.00,,,0.00,1.000000,,2013-04-27 10:52:00,
2013-04-27 05:22:00,33.0,11.0,-100.00,NE,55,3.0,4.0,39,0.00,,,0.00,1.000000,,2013-04-27 11:22:00,
2013-04-27 05:31:00,33.0,11.0,-100.00,NE,55,3.0,4.0,39,0.00,,,0.00,1.000000,,2013-04-27 11:31:00,
2013-04-27 05:41:00,33.0,11.0,-100.00,NE,55,3.0,4.0,39,0.00,,,0.00,1.000000,,2013-04-27 11:41:00,
2013-04-27 05:52:00,33.0,11.0,-100.00,NE,55,3.0,4.0,39,0.00,,,0.00,1.000000,,2013-04-27 11:52:00,
2013-04-27 06:21:00,33.0,12.0,-100.00,NE,40,3.0,4.0,41,0.00,,,0.00,1.000000,,2013-04-27 12:21:00,
2013-04-27 06:32:00,33.0,12.0,-100.00,NE,40,3.0,4.0,41,0.00,,,0.00,1.000000,,2013-04-27 12:32:00,
2013-04-27 06:42:00,33.0,12.0,-100.00,NE,40,3.0,4.0,41,0.00,,,0.00,1.000000,,2013-04-27 12:42:00,
2013-04-27 06:51:00,33.0,12.0,-100.00,NE,40,3.0,4.0,41,0.00,,,0.00,1.000000,,2013-04-27 12:51:00,
2013-04-27 07:21:00,34.0,12.0,-100.00,ENE,71,2.0,4.0,39,0.00,,,0.00,12.000000,,2013-04-27 13:21:00,
2013-04-27 07:32:00,34.0,12.0,-100.00,ENE,71,2.0,4.0,39,0.00,,,0.00,12.000000,,2013-04-27 13:32:00,
2013-04-27 07:41:00,34.0,12.0,-100.00,ENE,71,2.0,4.0,39,0.00,,,0.00,12.000000,,2013-04-27 13:41:00,
2013-04-27 07:52:00,34.0,12.0,-100.00,ENE,71,2.0,4.0,39,0.00,,,0.00,12.000000,,2013-04-27 13:52:00,
2013-04-27 08:21:00,46.0,17.0,-100.00,East,99,1.0,3.0,31,0.00,,,-99.99,151.000000,,2013-04-27 14:21:00,
2013-04-27 08:31:00,46.0,17.0,-100.00,East,99,1.0,3.0,31,0.00,,,-99.99,151.000000,,2013-04-27 14:31:00,
2013-04-27 08:41:00,46.0,17.0,-100.00,East,99,1.0,3.0,31,0.00,,,-99.99,151.000000,,2013-04-27 14:41:00,
2013-04-27 08:52:00,46.0,17.0,-100.00,East,99,1.0,3.0,31,0.00,,,-99.99,151.000000,,2013-04-27 14:52:00,
2013-04-27 09:21:00,53.0,15.0,-100.00,WSW,243,2.0,4.0,22,0.00,,,0.00,351.000000,,2013-04-27 15:21:00,
2013-04-27 09:33:00,53.0,15.0,-100.00,WSW,243,2.0,4.0,22,0.00,,,0.00,351.000000,,2013-04-27 15:33:00,
2013-04-27 09:42:00,53.0,15.0,-100.00,WSW,243,2.0,4.0,22,0.00,,,0.00,351.000000,,2013-04-27 15:42:00,
2013-04-27 09:52:00,53.0,15.0,-100.00,WSW,243,2.0,4.0,22,0.00,,,0.00,351.000000,,2013-04-27 15:52:00,
2013-04-27 10:42:00,55.0,11.0,-100.00,WSW,248,5.0,8.0,17,0.00,,,0.00,557.000000,,2013-04-27 16:42:00,
2013-04-27 10:52:00,55.0,11.0,-100.00,WSW,248,5.0,8.0,17,0.00,,,0.00,557.000000,,2013-04-27 16:52:00,
2013-04-27 11:22:00,58.0,7.0,-100.00,West,261,6.0,10.0,13,0.00,,,0.00,736.000000,,2013-04-27 17:22:00,
2013-04-27 12:22:00,60.0,9.0,-100.00,NW,308,6.0,13.0,13,0.00,,,0.00,850.000000,,2013-04-27 18:22:00,
2013-04-27 12:32:00,60.0,9.0,-100.00,NW,308,6.0,13.0,13,0.00,,,0.00,850.000000,,2013-04-27 18:32:00,
2013-04-27 12:41:00,60.0,9.0,-100.00,NW,308,6.0,13.0,13,0.00,,,0.00,850.000000,,2013-04-27 18:41:00,
2013-04-27 12:51:00,60.0,9.0,-100.00,NW,308,6.0,13.0,13,0.00,,,0.00,850.000000,,2013-04-27 18:51:00,
2013-04-27 13:21:00,60.0,7.0,-100.00,WNW,303,5.0,16.0,12,0.00,,,0.00,975.000000,,2013-04-27 19:21:00,
2013-04-27 13:32:00,60.0,7.0,-100.00,WNW,303,5.0,16.0,12,0.00,,,0.00,975.000000,,2013-04-27 19:32:00,
2013-04-27 13:42:00,60.0,7.0,-100.00,WNW,303,5.0,16.0,12,0.00,,,0.00,975.000000,,2013-04-27 19:42:00,
2013-04-27 13:52:00,60.0,7.0,-100.00,WNW,303,5.0,16.0,12,0.00,,,0.00,975.000000,,2013-04-27 19:52:00,
2013-04-27 14:21:00,62.0,9.0,-100.00,West,268,5.0,15.0,12,0.00,,,0.00,985.000000,,2013-04-27 20:21:00,
2013-04-27 14:32:00,62.0,9.0,-100.00,West,268,5.0,15.0,12,0.00,,,0.00,985.000000,,2013-04-27 20:32:00,
2013-04-27 14:42:00,62.0,9.0,-100.00,West,268,5.0,15.0,12,0.00,,,0.00,985.000000,,2013-04-27 20:42:00,
2013-04-27 14:52:00,62.0,9.0,-100.00,West,268,5.0,15.0,12,0.00,,,0.00,985.000000,,2013-04-27 20:52:00,
2013-04-27 15:21:00,64.0,8.0,-100.00,North,354,6.0,13.0,11,0.00,,,0.00,956.000000,,2013-04-27 21:21:00,
2013-04-27 15:32:00,64.0,8.0,-100.00,North,354,6.0,13.0,11,0.00,,,0.00,956.000000,,2013-04-27 21:32:00,
2013-04-27 15:42:00,64.0,8.0,-100.00,North,354,6.0,13.0,11,0.00,,,0.00,956.000000,,2013-04-27 21:42:00,
2013-04-27 15:53:00,64.0,8.0,-100.00,North,354,6.0,13.0,11,0.00,,,0.00,956.000000,,2013-04-27 21:53:00,
2013-04-27 16:22:00,64.0,8.0,-100.00,NNW,328,5.0,14.0,11,0.00,,,0.00,859.000000,,2013-04-27 22:22:00,
2013-04-27 16:32:00,64.0,8.0,-100.00,NNW,328,5.0,14.0,11,0.00,,,0.00,859.000000,,2013-04-27 22:32:00,
2013-04-27 16:42:00,64.0,8.0,-100.00,NNW,328,5.0,14.0,11,0.00,,,0.00,859.000000,,2013-04-27 22:42:00,
2013-04-27 16:52:00,64.0,8.0,-100.00,NNW,328,5.0,14.0,11,0.00,,,0.00,859.000000,,2013-04-27 22:52:00,
2013-04-27 17:22:00,63.0,6.0,-100.00,NNW,337,5.0,15.0,10,0.00,,,0.00,705.000000,,2013-04-27 23:22:00,
2013-04-27 17:32:00,63.0,6.0,-100.00,NNW,337,5.0,15.0,10,0.00,,,0.00,705.000000,,2013-04-27 23:32:00,
2013-04-27 17:42:00,63.0,6.0,-100.00,NNW,337,5.0,15.0,10,0.00,,,0.00,705.000000,,2013-04-27 23:42:00,
2013-04-27 17:52:00,63.0,6.0,-100.00,NNW,337,5.0,15.0,10,0.00,,,0.00,705.000000,,2013-04-27 23:52:00,
2013-04-27 18:21:00,63.0,6.0,-100.00,West,269,6.0,14.0,10,0.00,,,0.00,515.000000,,2013-04-28 00:21:00,
2013-04-27 18:31:00,63.0,6.0,-100.00,West,269,6.0,14.0,10,0.00,,,0.00,515.000000,,2013-04-28 00:31:00,
2013-04-27 18:42:00,63.0,6.0,-100.00,West,269,6.0,14.0,10,0.00,,,0.00,515.000000,,2013-04-28 00:42:00,
2013-04-27 18:52:00,63.0,6.0,-100.00,West,269,6.0,14.0,10,0.00,,,0.00,515.000000,,2013-04-28 00:52:00,
2013-04-27 19:21:00,60.0,5.0,-100.00,West,261,4.0,12.0,11,0.00,,,0.00,284.000000,,2013-04-28 01:21:00,
2013-04-27 19:31:00,60.0,5.0,-100.00,West,261,4.0,12.0,11,0.00,,,0.00,284.000000,,2013-04-28 01:31:00,
2013-04-27 19:41:00,60.0,5.0,-100.00,West,261,4.0,12.0,11,0.00,,,0.00,284.000000,,2013-04-28 01:41:00,
2013-04-27 19:52:00,60.0,5.0,-100.00,West,261,4.0,12.0,11,0.00,,,0.00,284.000000,,2013-04-28 01:52:00,
2013-04-27 20:21:00,53.0,8.0,-100.00,West,270,1.0,9.0,16,0.00,,,0.00,30.000000,,2013-04-28 02:21:00,
2013-04-27 20:32:00,53.0,8.0,-100.00,West,270,1.0,9.0,16,0.00,,,0.00,30.000000,,2013-04-28 02:32:00,
2013-04-27 20:42:00,53.0,8.0,-100.00,West,270,1.0,9.0,16,0.00,,,0.00,30.000000,,2013-04-28 02:42:00,
2013-04-27 20:52:00,53.0,8.0,-100.00,West,270,1.0,9.0,16,0.00,,,0.00,30.000000,,2013-04-28 02:52:00,
2013-04-27 21:21:00,48.0,9.0,-100.00,NE,52,3.0,4.0,20,0.00,,,0.00,2.000000,,2013-04-28 03:21:00,
2013-04-27 21:32:00,48.0,9.0,-100.00,NE,52,3.0,4.0,20,0.00,,,0.00,2.000000,,2013-04-28 03:32:00,
2013-04-27 21:42:00,48.0,9.0,-100.00,NE,52,3.0,4.0,20,0.00,,,0.00,2.000000,,2013-04-28 03:42:00,
2013-04-27 21:53:00,48.0,9.0,-100.00,NE,52,3.0,4.0,20,0.00,,,0.00,2.000000,,2013-04-28 03:53:00,
2013-04-27 22:22:00,43.0,12.0,-100.00,East,94,1.0,5.0,28,0.00,,,0.00,1.000000,,2013-04-28 04:22:00,
2013-04-27 22:32:00,43.0,12.0,-100.00,East,94,1.0,5.0,28,0.00,,,0.00,1.000000,,2013-04-28 04:32:00,
2013-04-27 22:42:00,43.0,12.0,-100.00,East,94,1.0,5.0,28,0.00,,,0.00,1.000000,,2013-04-28 04:42:00,
2013-04-27 22:52:00,43.0,12.0,-100.00,East,94,1.0,5.0,28,0.00,,,0.00,1.000000,,2013-04-28 04:52:00,
2013-04-27 23:22:00,40.0,13.0,-100.00,SSE,151,0.0,4.0,32,0.00,,,0.00,1.000000,,2013-04-28 05:22:00,
2013-04-27 23:32:00,40.0,13.0,-100.00,SSE,151,0.0,4.0,32,0.00,,,0.00,1.000000,,2013-04-28 05:32:00,
2013-04-27 23:42:00,40.0,13.0,-100.00,SSE,151,0.0,4.0,32,0.00,,,0.00,1.000000,,2013-04-28 05:42:00,
2013-04-27 23:52:00,40.0,13.0,-100.00,SSE,151,0.0,4.0,32,0.00,,,0.00,1.000000,,2013-04-28 05:52:00,